When you browse on this site, cookies collect data to enhance your experience and personalize the content and advertising you see.
Visit our Privacy Policy to learn more. By continuing to use the site, you agree to this use of cookies and data.
  • In Switzerland
  • List of Countries
  • For 7 days
  • Water Temperature
  • Weather Map
  • Weather Widgets
  • user-avatar
    Login

    Hourly Weather Oviedo

    Today, 3 June, Wednesday

    Time Temperature Precipitation Wind Pressure Humidity
    00:00 +16°C° 0 mm 0 mps 744 mmHg 95%
    01:00 +16°C° 0.4 mm 0 mps 744 mmHg 95%
    02:00 +16°C° 0.4 mm 0 mps 744 mmHg 95%
    03:00 +16°C° 0.4 mm 0 mps 743 mmHg 96%
    04:00 +19°C° 0.1 mm 1 mps 743 mmHg 95%
    05:00 +19°C° 0.1 mm 1 mps 743 mmHg 95%
    06:00 +19°C° 0.1 mm 1 mps 742 mmHg 94%
    07:00 +20°C° 0.1 mm 1 mps 742 mmHg 90%
    08:00 +21°C° 0.1 mm 1 mps 742 mmHg 87%
    09:00 +21°C° 0.1 mm 2 mps 742 mmHg 83%
    10:00 +21°C° 0.4 mm 2 mps 742 mmHg 82%
    11:00 +21°C° 0.4 mm 2 mps 742 mmHg 82%
    12:00 +21°C° 0.4 mm 3 mps 742 mmHg 82%
    13:00 +21°C° 0.3 mm 3 mps 741 mmHg 80%
    14:00 +21°C° 0.3 mm 3 mps 741 mmHg 79%
    15:00 +22°C° 0.3 mm 3 mps 741 mmHg 77%
    16:00 +21°C° 0.1 mm 3 mps 741 mmHg 78%
    17:00 +20°C° 0.1 mm 3 mps 740 mmHg 78%
    18:00 +19°C° 0.1 mm 2 mps 740 mmHg 78%
    19:00 +18°C° 0 mm 2 mps 741 mmHg 84%
    20:00 +16°C° 0 mm 2 mps 741 mmHg 90%
    21:00 +15°C° 0 mm 1 mps 741 mmHg 96%
    22:00 +14°C° 0.1 mm 1 mps 741 mmHg 96%
    23:00 +14°C° 0.1 mm 2 mps 741 mmHg 96%

    Tomorrow, 4 June, Thursday

    Time Temperature Precipitation Wind Pressure Humidity
    00:00 +13°C° 0.1 mm 2 mps 740 mmHg 96%
    01:00 +13°C° 0.1 mm 2 mps 740 mmHg 95%
    02:00 +13°C° 0.1 mm 2 mps 740 mmHg 95%
    03:00 +13°C° 0.1 mm 2 mps 740 mmHg 94%
    04:00 +13°C° 0.4 mm 2 mps 740 mmHg 94%
    05:00 +13°C° 0.4 mm 2 mps 740 mmHg 94%
    06:00 +14°C° 0.4 mm 2 mps 740 mmHg 95%
    07:00 +14°C° 0.5 mm 2 mps 740 mmHg 94%
    08:00 +14°C° 0.5 mm 3 mps 740 mmHg 92%
    09:00 +14°C° 0.5 mm 3 mps 740 mmHg 91%
    10:00 +17°C° 0.2 mm 3 mps 741 mmHg 83%
    11:00 +18°C° 0.2 mm 4 mps 741 mmHg 74%
    12:00 +19°C° 0.2 mm 4 mps 741 mmHg 66%
    13:00 +19°C° 0.6 mm 4 mps 741 mmHg 72%
    14:00 +18°C° 0.6 mm 4 mps 741 mmHg 79%
    15:00 +18°C° 0.6 mm 4 mps 742 mmHg 85%
    16:00 +17°C° 0.6 mm 3 mps 742 mmHg 88%
    17:00 +16°C° 0.6 mm 3 mps 742 mmHg 91%
    18:00 +16°C° 0.6 mm 2 mps 742 mmHg 94%
    19:00 +15°C° 0.4 mm 2 mps 743 mmHg 95%
    20:00 +15°C° 0.4 mm 2 mps 744 mmHg 96%
    21:00 +14°C° 0.4 mm 2 mps 744 mmHg 97%
    22:00 +14°C° 0.2 mm 1 mps 744 mmHg 96%
    23:00 +14°C° 0.2 mm 1 mps 744 mmHg 96%

    Day after tomorrow, 5 June, Friday

    Time Temperature Precipitation Wind Pressure Humidity
    00:00 +13°C° 0.2 mm 1 mps 745 mmHg 95%
    01:00 +13°C° 0 mm 1 mps 745 mmHg 96%
    02:00 +12°C° 0 mm 1 mps 745 mmHg 96%
    03:00 +12°C° 0 mm 1 mps 745 mmHg 96%
    04:00 +12°C° 0 mm 1 mps 745 mmHg 95%
    05:00 +12°C° 0 mm 2 mps 745 mmHg 95%
    06:00 +12°C° 0 mm 2 mps 744 mmHg 94%
    07:00 +14°C° 0 mm 2 mps 744 mmHg 84%
    08:00 +16°C° 0 mm 2 mps 744 mmHg 74%
    09:00 +18°C° 0 mm 2 mps 744 mmHg 64%
    10:00 +19°C° 0 mm 2 mps 744 mmHg 61%
    11:00 +20°C° 0 mm 3 mps 744 mmHg 57%
    12:00 +22°C° 0 mm 3 mps 744 mmHg 54%
    13:00 +22°C° 0 mm 3 mps 744 mmHg 55%
    14:00 +22°C° 0 mm 3 mps 744 mmHg 56%
    15:00 +22°C° 0 mm 3 mps 743 mmHg 57%
    16:00 +21°C° 0 mm 3 mps 743 mmHg 63%
    17:00 +20°C° 0 mm 3 mps 743 mmHg 68%
    18:00 +19°C° 0 mm 3 mps 743 mmHg 74%
    19:00 +17°C° 0 mm 2 mps 743 mmHg 81%
    20:00 +16°C° 0 mm 2 mps 743 mmHg 89%
    21:00 +14°C° 0 mm 1 mps 744 mmHg 96%
    22:00 +14°C° 0 mm 1 mps 743 mmHg 95%
    23:00 +14°C° 0 mm 1 mps 743 mmHg 94%

    6 June, Saturday

    Time Temperature Precipitation Wind Pressure Humidity
    00:00 +14°C° 0 mm 1 mps 743 mmHg 94%
    01:00 +14°C° 0 mm 1 mps 743 mmHg 93%
    02:00 +14°C° 0 mm 1 mps 743 mmHg 91%
    03:00 +15°C° 0 mm 1 mps 743 mmHg 90%
    04:00 +15°C° 0 mm 1 mps 743 mmHg 90%
    05:00 +15°C° 0 mm 1 mps 743 mmHg 89%
    06:00 +15°C° 0 mm 1 mps 742 mmHg 88%
    07:00 +16°C° 0 mm 1 mps 743 mmHg 82%
    08:00 +18°C° 0 mm 2 mps 743 mmHg 75%
    09:00 +19°C° 0 mm 2 mps 743 mmHg 69%
    10:00 +19°C° 0 mm 2 mps 743 mmHg 67%
    11:00 +20°C° 0 mm 3 mps 742 mmHg 66%
    12:00 +20°C° 0 mm 3 mps 742 mmHg 64%
    13:00 +20°C° 0 mm 3 mps 742 mmHg 68%
    14:00 +19°C° 0 mm 3 mps 742 mmHg 73%
    15:00 +19°C° 0 mm 3 mps 742 mmHg 77%
    16:00 +18°C° 0.1 mm 3 mps 742 mmHg 82%
    17:00 +17°C° 0.1 mm 2 mps 742 mmHg 86%
    18:00 +16°C° 0.1 mm 2 mps 743 mmHg 91%
    19:00 +16°C° 0.2 mm 1 mps 743 mmHg 93%
    20:00 +16°C° 0.2 mm 1 mps 743 mmHg 95%
    21:00 +15°C° 0.2 mm 1 mps 744 mmHg 97%
    22:00 +15°C° 0.1 mm 1 mps 744 mmHg 97%
    23:00 +15°C° 0.1 mm 1 mps 744 mmHg 97%

    7 June, Sunday

    Time Temperature Precipitation Wind Pressure Humidity
    00:00 +15°C° 0.1 mm 1 mps 744 mmHg 97%
    01:00 +15°C° 0.1 mm 1 mps 744 mmHg 97%
    02:00 +15°C° 0.1 mm 1 mps 744 mmHg 96%
    03:00 +14°C° 0.1 mm 1 mps 744 mmHg 96%
    04:00 +14°C° 0.1 mm 1 mps 744 mmHg 96%
    05:00 +14°C° 0.1 mm 1 mps 744 mmHg 96%
    06:00 +14°C° 0.1 mm 1 mps 744 mmHg 96%
    07:00 +14°C° 0.1 mm 1 mps 745 mmHg 96%
    08:00 +14°C° 0.1 mm 1 mps 745 mmHg 95%
    09:00 +14°C° 0.1 mm 1 mps 745 mmHg 95%
    10:00 +14°C° 0.1 mm 1 mps 745 mmHg 95%
    11:00 +14°C° 0.1 mm 1 mps 745 mmHg 94%
    12:00 +14°C° 0.1 mm 1 mps 746 mmHg 94%
    13:00 +15°C° 0 mm 1 mps 746 mmHg 91%
    14:00 +15°C° 0 mm 1 mps 746 mmHg 87%
    15:00 +15°C° 0 mm 1 mps 746 mmHg 84%
    16:00 +15°C° 0 mm 1 mps 746 mmHg 85%
    17:00 +15°C° 0 mm 1 mps 746 mmHg 86%
    18:00 +14°C° 0 mm 1 mps 746 mmHg 87%
    19:00 +14°C° 0 mm 1 mps 747 mmHg 88%
    20:00 +14°C° 0 mm 1 mps 747 mmHg 89%
    21:00 +13°C° 0 mm 1 mps 748 mmHg 90%
    22:00 +13°C° 0 mm 1 mps 748 mmHg 90%
    23:00 +13°C° 0 mm 1 mps 748 mmHg 90%

    8 June, Monday

    Time Temperature Precipitation Wind Pressure Humidity
    00:00 +12°C° 0 mm 0 mps 748 mmHg 90%
    01:00 +11°C° 0 mm 0 mps 748 mmHg 90%
    02:00 +11°C° 0 mm 0 mps 748 mmHg 90%
    03:00 +11°C° 0 mm 0 mps 748 mmHg 89%
    04:00 +11°C° 0 mm 0 mps 748 mmHg 88%
    05:00 +11°C° 0 mm 0 mps 748 mmHg 86%
    06:00 +12°C° 0 mm 0 mps 748 mmHg 85%
    07:00 +13°C° 0 mm 0 mps 748 mmHg 77%
    08:00 +15°C° 0 mm 1 mps 748 mmHg 69%
    09:00 +16°C° 0 mm 1 mps 748 mmHg 61%
    10:00 +19°C° 0 mm 1 mps 748 mmHg 55%
    11:00 +19°C° 0 mm 2 mps 748 mmHg 50%
    12:00 +20°C° 0 mm 2 mps 748 mmHg 45%
    13:00 +20°C° 0 mm 2 mps 748 mmHg 47%
    14:00 +20°C° 0 mm 3 mps 747 mmHg 49%
    15:00 +19°C° 0 mm 3 mps 747 mmHg 51%
    16:00 +18°C° 0 mm 3 mps 747 mmHg 57%
    17:00 +18°C° 0 mm 3 mps 747 mmHg 63%
    18:00 +17°C° 0 mm 2 mps 747 mmHg 69%
    19:00 +15°C° 0 mm 2 mps 748 mmHg 76%
    20:00 +14°C° 0 mm 1 mps 748 mmHg 84%
    21:00 +13°C° 0 mm 1 mps 748 mmHg 91%
    22:00 +12°C° 0 mm 1 mps 748 mmHg 92%
    23:00 +12°C° 0 mm 1 mps 748 mmHg 93%
    Show more